This is the latest recevied weather packets stored in our database for station/object DL4JCP-6. If no packets are shown the sender has not sent any weather packets the latest 1 day(s).
| Time | Temp. | Humidity | Pressure | Rain* | Wind** | Luminosity | Snow |
|---|---|---|---|---|---|---|---|
| 1777977194 | 17.22° C | 73% | 1010.1 hPa | 0 mm | 1.34 m/s, 349° | - | - |
| 1777976294 | 17.78° C | 72% | 1010 hPa | 0 mm | 1.34 m/s, 355° | - | - |
| 1777975394 | 18.33° C | 72% | 1010.4 hPa | 0 mm | 1.34 m/s, 309° | - | - |
| 1777974496 | 18.33° C | 65% | 1010.4 hPa | 0 mm | 1.34 m/s, 44° | - | - |
| 1777973597 | 18.89° C | 69% | 1010.5 hPa | 0 mm | 1.79 m/s, 344° | - | - |
| 1777972696 | 18.33° C | 75% | 1010.7 hPa | 0 mm | 1.79 m/s, 11° | - | - |
| 1777971794 | 17.22° C | 73% | 1010.6 hPa | 0 mm | 1.34 m/s, 28° | - | - |
| 1777970896 | 17.22° C | 74% | 1010.7 hPa | 0 mm | 1.79 m/s, 106° | - | - |
| 1777969993 | 16.11° C | 79% | 1010.6 hPa | 0 mm | 0.89 m/s, 74° | - | - |
| 1777969096 | 15.56° C | 82% | 1010.7 hPa | 0 mm | 0.45 m/s, 64° | - | - |
| 1777968193 | 15° C | 82% | 1010.7 hPa | 0 mm | 1.34 m/s, 63° | - | - |
| 1777967293 | 15° C | 82% | 1010.9 hPa | 0 mm | 0.89 m/s, 58° | - | - |
| 1777966392 | 15° C | 84% | 1011.1 hPa | 0 mm | 0 m/s | - | - |
| 1777965493 | 14.44° C | 86% | 1011.2 hPa | 0 mm | 0.45 m/s, 311° | - | - |
| 1777964593 | 13.33° C | 89% | 1011.1 hPa | 0 mm | 0 m/s | - | - |
| 1777963696 | 12.78° C | 92% | 1011 hPa | 0 mm | 0.45 m/s, 175° | - | - |
| 1777962792 | 11.67° C | 92% | 1011.2 hPa | 0 mm | 0 m/s | - | - |
| 1777961896 | 11.67° C | 92% | 1011.3 hPa | 0.25 mm | 0.45 m/s, 178° | - | - |
| 1777960992 | 11.67° C | 93% | 1011.3 hPa | 0.25 mm | 0 m/s | - | - |
| 1777960095 | 11.11° C | 92% | 1011.4 hPa | 0.25 mm | 0 m/s | - | - |
| 1777959195 | 11.11° C | 91% | 1011.5 hPa | 0.25 mm | 0.45 m/s, 136° | - | - |
| 1777958292 | 11.11° C | 91% | 1011.5 hPa | 0 mm | 0 m/s | - | - |
| 1777957392 | 11.11° C | 90% | 1011.4 hPa | 0 mm | 0 m/s | - | - |
| 1777956492 | 11.11° C | 90% | 1011.7 hPa | 0 mm | 0 m/s | - | - |
| 1777955592 | 10.56° C | 90% | 1011.7 hPa | 0 mm | 0 m/s | - | - |
* Rain latest hour (hover to see other rain measurements)
** Current wind speed in m/s (hover to see current wind gust speed)